Weather History for YPXM - December, 2012

Change the Weather History Date:

Wednesday, December 5, 2012

  Actual Average Record
Temperature  
Mean Temperature 77 °F -  
Max Temperature 81 °F 78 °F 83 °F (2013)
Min Temperature 73 °F 70 °F 68 °F (2000)
Cooling Degree Days 12    
Growing Degree Days 27 (Base 50)    
Moisture  
Dew Point 72 °F    
Average Humidity 82    
Maximum Humidity 94    
Minimum Humidity 70    
Precipitation  
Precipitation 0.00 in - - ()
Sea Level Pressure  
Sea Level Pressure 29.85 in    
Wind  
Wind Speed 5 mph ()    
Max Wind Speed 10 mph    
Max Gust Speed -    
Averages and records for this station are not official NWS values.
T = Trace of Precipitation, MM = Missing Value Source: Averaged Metar Reports

Daily Weather History Graph

Daily Weather History Graph

Search for Another Location

Airport or City:

Trip Planner

Search our weather history database for the weather conditions in past years. The results will help you decide how hot, cold, wet, or windy it might be!

Date:

Astronomy

Dec. 05, 2012 Rise Set
Actual Time 5:26 AM CXT 6:09 PM CXT
Civil Twilight 5:03 AM CXT 6:32 PM CXT
Nautical Twilight 4:36 AM CXT 6:59 PM CXT
Astronomical Twilight 4:09 AM CXT 7:26 PM CXT
Moon 11:12 PM CXT (12/5) 10:37 AM CXT (12/5)
Length of Visible Light 13h 28m
Length of Day
12h 42m
Waning Gibbous, 65% of the Moon is Illuminated
Dec 5
Waning Gibbous
Dec 6
Last Quarter
Dec 13
New
Dec 20
First Quarter
Dec 28
Full

Hourly Weather History & Observations

Time (CXT) Temp. Heat Index Dew Point Humidity Pressure Visibility Wind Dir Wind Speed Gust Speed Precip Events Conditions
12:00 AM 76 °F - 72 °F 84% 29.85 in - SSE 5.8 mph - -  
12:00 AM 75.2 °F - 71.6 °F 89% 29.89 in - SSE 5.8 mph - N/A   Unknown
1:00 AM 75 °F - 71 °F 85% 29.83 in - SSE 3.5 mph - -  
1:00 AM 75.2 °F - 71.6 °F 89% 29.86 in - SSE 3.5 mph - N/A   Unknown
2:00 AM 75.2 °F - 71.6 °F 89% 29.86 in - SSE 3.5 mph - N/A   Unknown
3:00 AM 74 °F - 72 °F 90% 29.81 in - SSW 1.2 mph - -  
3:00 AM 73.4 °F - 71.6 °F 94% 29.83 in - SSW 1.2 mph - N/A   Unknown
4:00 AM 75 °F - 72 °F 89% 29.81 in - SSW 3.5 mph - -  
4:00 AM 75.2 °F - 71.6 °F 89% 29.86 in - SSW 3.5 mph - N/A   Unknown
5:00 AM 75.2 °F - 73.4 °F 94% 29.86 in - SSW 3.5 mph - N/A   Unknown
6:00 AM 74 °F - 72 °F 91% 29.83 in - Calm Calm - -  
6:00 AM 73.4 °F - 71.6 °F 94% 29.86 in - Calm Calm - N/A   Unknown
7:00 AM 77 °F - 72 °F 80% 29.85 in - SSW 1.2 mph - -  
7:00 AM 77.0 °F - 71.6 °F 83% 29.89 in - SSW 1.2 mph - N/A   Unknown
8:00 AM 78.8 °F - 71.6 °F 78% 29.89 in - SSE 5.8 mph - N/A   Unknown
9:00 AM 81 °F - 73 °F 70% 29.86 in - SSE 6.9 mph - -  
9:00 AM 80.6 °F 85.4 °F 73.4 °F 79% 29.89 in - SSE 6.9 mph - N/A   Unknown
10:00 AM 80 °F - 72 °F 72% 29.86 in - ESE 10.4 mph - -  
10:00 AM 80.6 °F 85.4 °F 73.4 °F 79% 29.89 in - ESE 10.4 mph - N/A   Unknown
11:00 AM 80.6 °F 84.6 °F 71.6 °F 74% 29.89 in - SSE 8.1 mph - N/A   Unknown
12:00 PM 80 °F - 73 °F 74% 29.83 in - SSE 9.2 mph - -  
12:00 PM 80.6 °F 85.4 °F 73.4 °F 79% 29.86 in - SSE 9.2 mph - N/A   Unknown
1:00 PM 80 °F - 73 °F 73% 29.82 in - SE 6.9 mph - -  
1:00 PM 80.6 °F 85.4 °F 73.4 °F 79% 29.86 in - SE 6.9 mph - N/A   Unknown
2:00 PM 80.6 °F 85.4 °F 73.4 °F 79% 29.83 in - ESE 8.1 mph - N/A   Unknown
3:00 PM 80 °F - 73 °F 74% 29.79 in - SE 8.1 mph - -  
3:00 PM 80.6 °F 85.4 °F 73.4 °F 79% 29.83 in - SE 8.1 mph - N/A   Unknown
4:00 PM 79 °F - 71 °F 70% 29.79 in - SE 9.2 mph - -  
4:00 PM 78.8 °F - 71.6 °F 78% 29.83 in - SE 9.2 mph - N/A   Unknown
5:00 PM 78.8 °F - 71.6 °F 78% 29.83 in - SE 9.2 mph - N/A   Unknown
6:00 PM 78 °F - 72 °F 78% 29.81 in - SE 5.8 mph - -  
6:00 PM 77.0 °F - 73.4 °F 89% 29.86 in - SE 5.8 mph - N/A   Unknown
7:00 PM 77 °F - 72 °F 80% 29.83 in - SE 5.8 mph - -  
7:00 PM 77.0 °F - 71.6 °F 83% 29.86 in - SE 5.8 mph - N/A   Unknown
9:00 PM 77.0 °F - 71.6 °F 83% 29.89 in - SE 6.9 mph - N/A   Unknown
10:00 PM 76 °F - 72 °F 84% 29.87 in - SE 6.9 mph - -  
10:00 PM 77.0 °F - 71.6 °F 83% 29.92 in - SE 6.9 mph - N/A   Unknown
11:00 PM 77.0 °F - 71.6 °F 83% 29.89 in - SE 8.1 mph - N/A   Unknown